Wetterdaten: Woche 19.11.12 - 25.11.12 (KW47)
Datum Zeit Temp. Auen Feucht Auen Luftdruck Regen Richtung Windben
19.11.2012 00:00 1,2 C 97 % 1018,8 hPa 0,0 mm W-SW 1,5 km/h (1 Bft)
19.11.2012 01:00 0,4 C 97 % 1019,0 hPa 0,0 mm W-SW 0,0 km/h (0 Bft)
19.11.2012 02:00 0,9 C 97 % 1019,2 hPa 0,0 mm W-SW 0,0 km/h (0 Bft)
19.11.2012 03:00 1,4 C 97 % 1019,1 hPa 0,0 mm W-SW 0,0 km/h (0 Bft)
19.11.2012 04:00 1,5 C 97 % 1018,9 hPa 0,0 mm S-SO 2,3 km/h (1 Bft)
19.11.2012 05:00 1,6 C 97 % 1018,8 hPa 0,0 mm S-SO 1,7 km/h (1 Bft)
19.11.2012 06:00 1,7 C 97 % 1018,9 hPa 0,0 mm SO 2,3 km/h (1 Bft)
19.11.2012 07:00 1,6 C 97 % 1019,3 hPa 0,0 mm SO 1,9 km/h (1 Bft)
19.11.2012 08:00 1,7 C 97 % 1019,6 hPa 0,0 mm O-SO 6,0 km/h (2 Bft)
19.11.2012 09:00 1,6 C 97 % 1019,6 hPa 0,0 mm O 7,2 km/h (2 Bft)
19.11.2012 10:00 2,0 C 97 % 1019,6 hPa 0,0 mm O-SO 8,4 km/h (2 Bft)
19.11.2012 11:00 2,5 C 97 % 1019,4 hPa 0,0 mm O-NO 9,8 km/h (2 Bft)
19.11.2012 12:00 3,1 C 96 % 1018,7 hPa 0,0 mm O 11,6 km/h (2 Bft)
19.11.2012 13:00 3,1 C 94 % 1018,5 hPa 0,0 mm O 12,6 km/h (3 Bft)
19.11.2012 14:00 3,0 C 94 % 1018,4 hPa 0,0 mm O-SO 12,4 km/h (3 Bft)
19.11.2012 15:00 2,7 C 94 % 1018,5 hPa 0,0 mm O-SO 12,4 km/h (3 Bft)
19.11.2012 16:00 2,6 C 94 % 1018,8 hPa 0,0 mm N-NO 7,9 km/h (2 Bft)
19.11.2012 17:00 2,7 C 95 % 1019,2 hPa 0,0 mm N 1,3 km/h (1 Bft)
19.11.2012 18:00 2,7 C 95 % 1019,4 hPa 0,0 mm N 0,0 km/h (0 Bft)
19.11.2012 19:00 2,9 C 95 % 1019,5 hPa 0,0 mm N 0,8 km/h (0 Bft)
19.11.2012 20:00 3,2 C 95 % 1019,4 hPa 0,0 mm O-NO 4,1 km/h (1 Bft)
19.11.2012 21:00 3,3 C 95 % 1019,5 hPa 0,0 mm O-SO 2,8 km/h (1 Bft)
19.11.2012 22:00 3,4 C 95 % 1019,5 hPa 0,0 mm SO 1,3 km/h (1 Bft)
19.11.2012 23:00 3,3 C 95 % 1019,9 hPa 0,0 mm S-SW 1,7 km/h (1 Bft)
20.11.2012 00:00 3,3 C 95 % 1020,2 hPa 0,0 mm W-SW 3,3 km/h (1 Bft)
20.11.2012 01:00 3,2 C 95 % 1020,3 hPa 0,0 mm W 3,6 km/h (1 Bft)
20.11.2012 02:00 3,3 C 96 % 1020,6 hPa 0,0 mm W 2,7 km/h (1 Bft)
20.11.2012 03:00 3,3 C 95 % 1020,5 hPa 0,0 mm W 1,2 km/h (1 Bft)
20.11.2012 04:00 3,2 C 95 % 1020,6 hPa 0,0 mm W 0,0 km/h (0 Bft)
20.11.2012 05:00 3,1 C 95 % 1020,7 hPa 0,0 mm SW 0,0 km/h (0 Bft)
20.11.2012 06:00 3,1 C 94 % 1020,8 hPa 0,0 mm SW 0,3 km/h (0 Bft)
20.11.2012 07:00 3,2 C 94 % 1021,2 hPa 0,0 mm SW 0,1 km/h (0 Bft)
20.11.2012 08:00 3,3 C 95 % 1021,6 hPa 0,0 mm S-SO 4,8 km/h (1 Bft)
20.11.2012 09:00 3,3 C 95 % 1021,8 hPa 0,0 mm S-SO 5,3 km/h (1 Bft)
20.11.2012 10:00 3,5 C 95 % 1021,6 hPa 0,0 mm SO 8,0 km/h (2 Bft)
20.11.2012 11:00 3,4 C 95 % 1021,3 hPa 0,0 mm SO 9,9 km/h (2 Bft)
20.11.2012 12:00 4,0 C 95 % 1021,1 hPa 0,0 mm SO 9,1 km/h (2 Bft)
20.11.2012 13:00 4,5 C 94 % 1021,0 hPa 0,0 mm O-SO 6,3 km/h (2 Bft)
20.11.2012 14:00 4,8 C 94 % 1021,1 hPa 0,0 mm SO 4,7 km/h (1 Bft)
20.11.2012 15:00 4,7 C 94 % 1021,3 hPa 0,0 mm SO 6,5 km/h (2 Bft)
20.11.2012 16:00 4,4 C 94 % 1021,2 hPa 0,0 mm NO 5,1 km/h (1 Bft)
20.11.2012 17:00 4,4 C 94 % 1021,3 hPa 0,0 mm SO 4,3 km/h (1 Bft)
20.11.2012 18:00 4,1 C 95 % 1021,1 hPa 0,0 mm S 3,9 km/h (1 Bft)
20.11.2012 19:00 3,9 C 95 % 1021,0 hPa 0,0 mm O-SO 3,3 km/h (1 Bft)
20.11.2012 20:00 3,8 C 96 % 1021,1 hPa 0,0 mm O-NO 5,6 km/h (1 Bft)
20.11.2012 21:00 3,7 C 96 % 1021,2 hPa 0,0 mm SO 3,9 km/h (1 Bft)
20.11.2012 22:00 3,6 C 96 % 1021,1 hPa 0,0 mm NO 3,2 km/h (1 Bft)
20.11.2012 23:00 3,4 C 96 % 1021,0 hPa 0,0 mm SO 5,8 km/h (2 Bft)
21.11.2012 00:00 3,2 C 97 % 1020,8 hPa 0,0 mm SO 6,8 km/h (2 Bft)
21.11.2012 01:00 3,2 C 97 % 1020,3 hPa 0,0 mm O-NO 5,6 km/h (1 Bft)
21.11.2012 02:00 3,3 C 97 % 1020,1 hPa 0,0 mm O-NO 5,6 km/h (1 Bft)
21.11.2012 03:00 3,2 C 97 % 1019,8 hPa 0,0 mm O 7,0 km/h (2 Bft)
21.11.2012 04:00 3,1 C 97 % 1019,4 hPa 0,0 mm O 6,7 km/h (2 Bft)
21.11.2012 05:00 3,1 C 97 % 1019,3 hPa 0,0 mm O 6,9 km/h (2 Bft)
21.11.2012 06:00 3,1 C 97 % 1019,4 hPa 0,0 mm O 6,4 km/h (2 Bft)
21.11.2012 07:00 3,1 C 97 % 1019,6 hPa 0,0 mm O 6,1 km/h (2 Bft)
21.11.2012 08:00 3,3 C 97 % 1019,6 hPa 0,0 mm O-NO 6,3 km/h (2 Bft)
21.11.2012 09:00 3,5 C 96 % 1019,5 hPa 0,0 mm O-SO 8,7 km/h (2 Bft)
21.11.2012 10:00 3,9 C 95 % 1019,3 hPa 0,0 mm O 9,0 km/h (2 Bft)
21.11.2012 11:00 4,2 C 94 % 1019,1 hPa 0,0 mm NO 8,3 km/h (2 Bft)
21.11.2012 12:00 4,4 C 94 % 1019,1 hPa 0,0 mm S-SO 5,3 km/h (1 Bft)
21.11.2012 13:00 4,9 C 93 % 1019,4 hPa 0,0 mm W 5,5 km/h (1 Bft)
21.11.2012 14:00 4,8 C 92 % 1019,4 hPa 0,0 mm W 6,3 km/h (2 Bft)
21.11.2012 15:00 4,4 C 93 % 1019,8 hPa 0,0 mm S-SO 3,9 km/h (1 Bft)
21.11.2012 16:00 4,0 C 94 % 1020,3 hPa 0,0 mm S 3,6 km/h (1 Bft)
21.11.2012 17:00 3,6 C 95 % 1020,9 hPa 0,0 mm S-SO 2,7 km/h (1 Bft)
21.11.2012 18:00 3,5 C 96 % 1021,5 hPa 0,0 mm S-SO 0,0 km/h (0 Bft)
21.11.2012 19:00 3,1 C 96 % 1022,0 hPa 0,0 mm N-NO 2,1 km/h (1 Bft)
21.11.2012 20:00 2,5 C 96 % 1022,5 hPa 0,0 mm O-NO 1,3 km/h (1 Bft)
21.11.2012 21:00 1,9 C 97 % 1023,0 hPa 0,0 mm S-SO 1,6 km/h (1 Bft)
21.11.2012 22:00 1,5 C 97 % 1023,5 hPa 0,0 mm W 2,1 km/h (1 Bft)
21.11.2012 23:00 0,8 C 97 % 1024,0 hPa 0,0 mm W 1,2 km/h (1 Bft)
22.11.2012 00:00 -0,1 C 97 % 1024,8 hPa 0,0 mm W 0,9 km/h (0 Bft)
22.11.2012 01:00 -0,7 C 97 % 1025,6 hPa 0,0 mm W 0,0 km/h (0 Bft)
22.11.2012 02:00 -1,2 C 97 % 1026,2 hPa 0,0 mm W 0,1 km/h (0 Bft)
22.11.2012 03:00 -1,3 C 97 % 1026,4 hPa 0,0 mm W 0,4 km/h (0 Bft)
22.11.2012 04:00 -1,5 C 97 % 1026,6 hPa 0,0 mm W 0,0 km/h (0 Bft)
22.11.2012 05:00 -1,2 C 97 % 1026,9 hPa 0,0 mm O-SO 2,3 km/h (1 Bft)
22.11.2012 06:00 -0,2 C 97 % 1027,0 hPa 0,0 mm O-SO 0,4 km/h (0 Bft)
22.11.2012 07:00 -0,3 C 97 % 1027,1 hPa 0,0 mm S-SW 0,4 km/h (0 Bft)
22.11.2012 08:00 0,0 C 98 % 1027,5 hPa 0,0 mm S-SW 0,1 km/h (0 Bft)
22.11.2012 09:00 1,2 C 98 % 1027,8 hPa 0,0 mm S-SW 0,4 km/h (0 Bft)
22.11.2012 10:00 3,1 C 98 % 1027,7 hPa 0,0 mm S-SW 2,0 km/h (1 Bft)
22.11.2012 11:00 4,2 C 96 % 1027,1 hPa 0,0 mm O-SO 3,9 km/h (1 Bft)
22.11.2012 12:00 5,2 C 94 % 1026,6 hPa 0,0 mm O-SO 1,6 km/h (1 Bft)
22.11.2012 13:00 5,9 C 93 % 1026,2 hPa 0,0 mm O-SO 3,3 km/h (1 Bft)
22.11.2012 14:00 6,4 C 92 % 1026,1 hPa 0,0 mm O-NO 4,7 km/h (1 Bft)
22.11.2012 15:00 6,2 C 93 % 1026,1 hPa 0,0 mm O-NO 5,9 km/h (2 Bft)
22.11.2012 16:00 5,8 C 94 % 1026,0 hPa 0,2 mm O 1,7 km/h (1 Bft)
22.11.2012 17:00 5,5 C 95 % 1025,8 hPa 0,0 mm O-SO 1,5 km/h (1 Bft)
22.11.2012 18:00 5,4 C 96 % 1025,8 hPa 0,0 mm O-NO 1,1 km/h (0 Bft)
22.11.2012 19:00 5,3 C 96 % 1025,3 hPa 0,4 mm O-NO 0,9 km/h (0 Bft)
22.11.2012 20:00 5,3 C 96 % 1024,8 hPa 0,2 mm NO 2,9 km/h (1 Bft)
22.11.2012 21:00 5,3 C 97 % 1024,4 hPa 0,0 mm O 1,5 km/h (1 Bft)
22.11.2012 22:00 5,2 C 97 % 1023,9 hPa 0,0 mm O 5,2 km/h (1 Bft)
22.11.2012 23:00 5,2 C 97 % 1023,8 hPa 0,0 mm O 2,5 km/h (1 Bft)
23.11.2012 00:00 5,3 C 96 % 1023,4 hPa 0,0 mm O 4,1 km/h (1 Bft)
23.11.2012 01:00 5,2 C 96 % 1023,1 hPa 0,0 mm O-SO 1,7 km/h (1 Bft)
23.11.2012 02:00 5,1 C 96 % 1023,1 hPa 0,0 mm O 0,9 km/h (0 Bft)
23.11.2012 03:00 4,9 C 96 % 1022,8 hPa 0,0 mm O-SO 1,7 km/h (1 Bft)
23.11.2012 04:00 4,8 C 96 % 1022,7 hPa 0,0 mm SO 3,2 km/h (1 Bft)
23.11.2012 05:00 4,7 C 96 % 1022,6 hPa 0,0 mm SO 3,2 km/h (1 Bft)
23.11.2012 06:00 4,5 C 96 % 1022,9 hPa 0,0 mm SO 2,8 km/h (1 Bft)
23.11.2012 07:00 4,3 C 96 % 1023,3 hPa 0,0 mm W 1,9 km/h (1 Bft)
23.11.2012 08:00 4,1 C 96 % 1023,5 hPa 0,0 mm N 3,5 km/h (1 Bft)
23.11.2012 09:00 4,1 C 97 % 1023,5 hPa 0,0 mm NW 3,2 km/h (1 Bft)
23.11.2012 10:00 4,4 C 96 % 1023,7 hPa 0,0 mm O-NO 2,0 km/h (1 Bft)
23.11.2012 11:00 4,6 C 96 % 1023,4 hPa 0,0 mm O 3,3 km/h (1 Bft)
23.11.2012 12:00 4,9 C 96 % 1023,0 hPa 0,0 mm O 2,5 km/h (1 Bft)
23.11.2012 13:00 5,0 C 95 % 1023,0 hPa 0,0 mm O 4,3 km/h (1 Bft)
23.11.2012 14:00 4,9 C 96 % 1023,0 hPa 0,0 mm N-NO 4,8 km/h (1 Bft)
23.11.2012 15:00 4,8 C 96 % 1023,3 hPa 0,0 mm N-NO 2,8 km/h (1 Bft)
23.11.2012 16:00 4,7 C 96 % 1023,2 hPa 0,0 mm NO 2,9 km/h (1 Bft)
23.11.2012 17:00 4,3 C 96 % 1023,5 hPa 0,0 mm O-NO 2,7 km/h (1 Bft)
23.11.2012 18:00 4,2 C 97 % 1023,7 hPa 0,0 mm SO 3,2 km/h (1 Bft)
23.11.2012 19:00 4,0 C 97 % 1023,8 hPa 0,0 mm S-SO 2,1 km/h (1 Bft)
23.11.2012 20:00 3,6 C 97 % 1024,0 hPa 0,2 mm S-SW 0,8 km/h (0 Bft)
23.11.2012 21:00 3,1 C 97 % 1024,2 hPa 0,0 mm S-SW 0,0 km/h (0 Bft)
23.11.2012 22:00 2,7 C 97 % 1024,4 hPa 0,0 mm S-SW 0,0 km/h (0 Bft)
23.11.2012 23:00 2,9 C 98 % 1024,4 hPa 0,0 mm S-SW 0,0 km/h (0 Bft)
24.11.2012 00:00 2,8 C 98 % 1024,2 hPa 0,0 mm W-SW 0,0 km/h (0 Bft)
24.11.2012 01:00 2,3 C 98 % 1024,0 hPa 0,0 mm W-SW 0,0 km/h (0 Bft)
24.11.2012 02:00 1,5 C 98 % 1023,8 hPa 0,0 mm W-SW 0,0 km/h (0 Bft)
24.11.2012 03:00 0,8 C 98 % 1023,3 hPa 0,0 mm W-SW 0,0 km/h (0 Bft)
24.11.2012 04:00 1,2 C 98 % 1023,1 hPa 0,0 mm W-SW 1,2 km/h (1 Bft)
24.11.2012 05:00 1,7 C 98 % 1023,2 hPa 0,0 mm W-SW 0,4 km/h (0 Bft)
24.11.2012 06:00 1,9 C 98 % 1023,0 hPa 0,0 mm S-SW 1,2 km/h (1 Bft)
24.11.2012 07:00 1,7 C 98 % 1023,0 hPa 0,0 mm W 0,5 km/h (0 Bft)
24.11.2012 08:00 2,0 C 98 % 1023,2 hPa 0,0 mm W 0,5 km/h (0 Bft)
24.11.2012 09:00 3,6 C 98 % 1023,4 hPa 0,0 mm W 0,0 km/h (0 Bft)
24.11.2012 10:00 5,3 C 96 % 1023,5 hPa 0,0 mm S-SO 3,6 km/h (1 Bft)
24.11.2012 11:00 6,9 C 91 % 1022,9 hPa 0,0 mm S 4,5 km/h (1 Bft)
24.11.2012 12:00 7,8 C 85 % 1022,1 hPa 0,0 mm O-SO 6,8 km/h (2 Bft)
24.11.2012 13:00 7,5 C 87 % 1021,3 hPa 0,0 mm O-SO 10,8 km/h (2 Bft)
24.11.2012 14:00 6,7 C 91 % 1020,8 hPa 0,0 mm O-SO 9,1 km/h (2 Bft)
24.11.2012 15:00 5,0 C 94 % 1020,5 hPa 0,0 mm SO 6,8 km/h (2 Bft)
24.11.2012 16:00 3,8 C 95 % 1020,1 hPa 0,0 mm SO 3,9 km/h (1 Bft)
24.11.2012 17:00 3,9 C 96 % 1019,7 hPa 0,0 mm S-SO 1,7 km/h (1 Bft)
24.11.2012 18:00 3,8 C 97 % 1019,6 hPa 0,0 mm SO 4,8 km/h (1 Bft)
24.11.2012 19:00 3,7 C 97 % 1019,1 hPa 0,0 mm SO 6,4 km/h (2 Bft)
24.11.2012 20:00 3,4 C 97 % 1018,7 hPa 0,0 mm W 5,6 km/h (1 Bft)
24.11.2012 21:00 3,4 C 97 % 1019,9 hPa 0,0 mm W 10,5 km/h (2 Bft)
24.11.2012 22:00 3,6 C 97 % 1020,2 hPa 0,0 mm W 4,0 km/h (1 Bft)
24.11.2012 23:00 3,7 C 97 % 1020,0 hPa 0,0 mm W 1,7 km/h (1 Bft)
25.11.2012 00:00 3,7 C 97 % 1019,0 hPa 0,0 mm O 4,7 km/h (1 Bft)
25.11.2012 01:00 3,4 C 96 % 1017,5 hPa 0,0 mm N-NO 1,3 km/h (1 Bft)
25.11.2012 02:00 2,7 C 96 % 1017,3 hPa 0,0 mm W 2,4 km/h (1 Bft)
25.11.2012 03:00 2,4 C 96 % 1018,0 hPa 0,0 mm W-SW 1,6 km/h (1 Bft)
25.11.2012 04:00 1,4 C 96 % 1019,4 hPa 0,0 mm W 2,1 km/h (1 Bft)
25.11.2012 05:00 0,6 C 96 % 1020,2 hPa 0,0 mm W 1,3 km/h (1 Bft)
25.11.2012 06:00 0,1 C 96 % 1020,5 hPa 0,0 mm W 1,3 km/h (1 Bft)
25.11.2012 07:00 -0,2 C 96 % 1020,9 hPa 0,0 mm W 1,3 km/h (1 Bft)
25.11.2012 08:00 0,8 C 96 % 1021,1 hPa 0,0 mm W 1,5 km/h (1 Bft)
25.11.2012 09:00 4,9 C 91 % 1021,0 hPa 0,0 mm S-SW 0,0 km/h (0 Bft)
25.11.2012 10:00 7,8 C 82 % 1020,6 hPa 0,0 mm S-SW 0,0 km/h (0 Bft)
25.11.2012 11:00 9,5 C 78 % 1019,8 hPa 0,0 mm O 2,3 km/h (1 Bft)
25.11.2012 12:00 11,5 C 73 % 1019,0 hPa 0,0 mm O 3,7 km/h (1 Bft)
25.11.2012 13:00 12,4 C 72 % 1018,4 hPa 0,0 mm O 4,7 km/h (1 Bft)
25.11.2012 14:00 12,1 C 71 % 1018,3 hPa 0,0 mm O 3,1 km/h (1 Bft)
25.11.2012 15:00 10,1 C 77 % 1018,5 hPa 0,0 mm NO 0,7 km/h (0 Bft)
25.11.2012 16:00 6,9 C 87 % 1018,8 hPa 0,0 mm NW 1,6 km/h (1 Bft)
25.11.2012 17:00 5,2 C 91 % 1019,1 hPa 0,0 mm NW 2,0 km/h (1 Bft)
25.11.2012 18:00 5,9 C 93 % 1019,4 hPa 0,0 mm W 5,6 km/h (1 Bft)
25.11.2012 19:00 6,9 C 91 % 1019,6 hPa 0,0 mm W 1,5 km/h (1 Bft)
25.11.2012 20:00 6,1 C 93 % 1019,5 hPa 0,0 mm W 1,7 km/h (1 Bft)
25.11.2012 21:00 5,3 C 94 % 1019,6 hPa 0,0 mm W 2,8 km/h (1 Bft)
25.11.2012 22:00 5,1 C 94 % 1019,6 hPa 0,0 mm W 1,5 km/h (1 Bft)
25.11.2012 23:00 4,9 C 94 % 1019,7 hPa 0,0 mm W 1,1 km/h (0 Bft)
Min-Datum _ 22.11.12 25.11.12 25.11.12 - - 19.11.12
_ Min-Zeit 05:10 12:40 01:55 - - 00:05
Minimum _ -1,7 C 68 % 1017,1 hPa - - 0,0 km/h (0 Bft)
Max-Datum _ 25.11.12 22.11.12 22.11.12 22.11.12 - 19.11.12
_ Max-Zeit 13:10 07:20 09:45 19:00 - 14:00
Maximum _ 12,6 C 98 % 1027,9 hPa 0,4 mm - 16,1 km/h
O-SO (3 Bft)
Durchschnitt _ 3,7 C 95 % 1021,6 hPa #1,0 mm W 3,4 km/h (1 Bft)